Date String (YYYY-MM-DD hh:mm:ss) UTC,Instrument flags,Ambient pressure (hPa),Sample flow (lpm),Bypass flow (lpm),Sample temperature (°C),Ambient temperature (°C),ASC tube jacket temperature (°C),LED temperature (°C),Box temperature (°C),Sample RH (%),Span deviation,Mass concentration (μg/m³),Mass concentration (μg/m³),Mass concentration (μg/m³)
DateTimeUTC,F1_M11,P_M11,Q1_M11,Q2_M11,T1_M11,T2_M11,T3_M11,T4_M11,T5_M11,U1_M11,ZSPAN_M11,X0_M11,X2_M11,X1_M11
2022-04-24 02:00:00,,0819.8,4.99,0.00,23.2,22.1,00.0,32.2,24.9,11.3,0000.0,0001.06,0000.62,0000.44
2022-04-24 02:01:00,,0819.8,4.99,0.00,23.2,22.1,00.0,32.2,24.9,11.3,0000.0,0001.05,0000.63,0000.45
2022-04-24 02:02:00,,0819.8,5.02,0.00,23.2,22.1,00.0,32.2,24.9,11.3,0000.0,0001.02,0000.62,0000.46
2022-04-24 02:03:00,,0819.8,5.00,0.00,23.2,22.1,00.0,32.2,24.9,11.2,0000.0,0001.44,0000.62,0000.46
2022-04-24 02:04:00,,0819.8,4.99,0.00,23.2,22.0,00.0,32.2,24.9,11.3,0000.0,0001.93,0000.64,0000.46
2022-04-24 02:05:00,,0819.9,4.99,0.00,23.2,22.1,00.0,32.2,24.9,11.3,0000.0,0001.99,0000.67,0000.47
2022-04-24 02:06:00,,0819.9,5.01,0.00,23.2,22.1,00.0,32.2,24.9,11.2,0000.0,0001.99,0000.67,0000.47
2022-04-24 02:07:00,,0819.9,5.01,0.00,23.2,22.1,00.0,32.2,24.9,11.1,0000.0,0001.96,0000.67,0000.47
2022-04-24 02:08:00,,0819.9,5.00,0.00,23.2,22.2,00.0,32.2,24.9,11.1,0000.0,0001.94,0000.64,0000.47
2022-04-24 02:09:00,,0819.8,4.99,0.00,23.2,22.2,00.0,32.2,24.8,11.1,0000.0,0002.05,0000.65,0000.46
2022-04-24 02:10:00,,0819.8,5.00,0.00,23.2,22.2,00.0,32.2,24.9,11.1,0000.0,0002.16,0000.68,0000.46
2022-04-24 02:11:00,,0819.9,5.01,0.00,23.2,22.2,00.0,32.2,24.9,11.1,0000.0,0002.12,0000.66,0000.47
2022-04-24 02:12:00,,0819.9,4.99,0.00,23.2,22.1,00.0,32.2,24.8,11.1,0000.0,0002.15,0000.67,0000.47
2022-04-24 02:13:00,,0819.8,4.99,0.00,23.2,22.1,00.0,32.2,24.9,11.1,0000.0,0002.26,0000.68,0000.47
2022-04-24 02:14:00,,0819.9,5.00,0.00,23.1,22.1,00.0,32.2,24.9,11.1,0000.0,0002.01,0000.68,0000.47
2022-04-24 02:15:00,,0819.8,4.99,0.00,23.2,22.1,00.0,32.2,24.8,11.2,0000.0,0001.39,0000.67,0000.47
2022-04-24 02:16:00,,0819.8,5.02,0.00,23.2,22.1,00.0,32.2,24.9,11.2,0000.0,0001.46,0000.68,0000.47
2022-04-24 02:17:00,,0819.7,5.00,0.00,23.1,22.1,00.0,32.1,24.9,11.2,0000.0,0001.47,0000.67,0000.47
2022-04-24 02:18:00,,0819.6,4.99,0.00,23.1,22.1,00.0,32.2,24.9,11.2,0000.0,0001.82,0000.73,0000.48
2022-04-24 02:19:00,,0819.7,5.02,0.00,23.1,22.1,00.0,32.1,24.9,11.1,0000.0,0001.79,0000.73,0000.48
2022-04-24 02:20:00,,0819.9,5.00,0.00,23.1,22.1,00.0,32.1,24.9,11.1,0000.0,0001.69,0000.73,0000.48
2022-04-24 02:21:00,,0819.9,5.00,0.00,23.1,22.1,00.0,32.1,24.9,11.2,0000.0,0001.62,0000.73,0000.49
2022-04-24 02:22:00,,0819.9,4.99,0.00,23.1,22.1,00.0,32.1,24.9,11.4,0000.0,0001.62,0000.74,0000.49
2022-04-24 02:23:00,,0819.9,4.99,0.00,23.1,22.1,00.0,32.1,24.9,11.4,0000.0,0001.69,0000.73,0000.48
2022-04-24 02:24:00,,0819.9,5.00,0.00,23.1,22.1,00.0,32.1,24.8,11.4,0000.0,0001.58,0000.70,0000.48
2022-04-24 02:25:00,,0819.9,5.01,0.00,23.1,22.1,00.0,32.1,24.9,11.4,0000.0,0001.53,0000.70,0000.48
2022-04-24 02:26:00,,0819.9,5.00,0.00,23.1,22.1,00.0,32.1,24.8,11.4,0000.0,0001.52,0000.69,0000.48
2022-04-24 02:27:00,,0819.8,5.00,0.00,23.1,22.1,00.0,32.1,24.8,11.3,0000.0,0001.38,0000.66,0000.48
2022-04-24 02:28:00,,0819.8,5.00,0.00,23.0,22.1,00.0,32.1,24.8,11.2,0000.0,0001.40,0000.65,0000.48
2022-04-24 02:29:00,,0819.7,5.01,0.00,23.0,22.1,00.0,32.1,24.8,11.1,0000.0,0001.16,0000.61,0000.47
2022-04-24 02:30:00,,0819.7,5.00,0.00,23.0,22.0,00.0,32.0,24.8,11.2,0000.0,0001.08,0000.61,0000.48
2022-04-24 02:31:00,,0819.9,4.98,0.00,23.0,22.0,00.0,32.0,24.8,11.2,0000.0,0001.11,0000.64,0000.49
2022-04-24 02:32:00,,0819.9,5.01,0.00,23.0,22.0,00.0,32.0,24.8,11.2,0000.0,0001.10,0000.63,0000.49
2022-04-24 02:33:00,,0819.9,4.99,0.00,23.0,22.0,00.0,32.0,24.8,11.3,0000.0,0001.08,0000.62,0000.48
2022-04-24 02:34:00,,0819.9,4.99,0.00,23.0,22.0,00.0,32.0,24.7,11.3,0000.0,0000.98,0000.61,0000.49
2022-04-24 02:35:00,,0819.9,4.99,0.00,23.0,22.0,00.0,32.0,24.8,11.3,0000.0,0000.95,0000.62,0000.48
2022-04-24 02:36:00,,0819.9,5.00,0.00,23.0,22.0,00.0,32.0,24.8,11.3,0000.0,0000.95,0000.61,0000.48
2022-04-24 02:37:00,,0819.9,5.00,0.00,22.9,22.0,00.0,32.0,24.7,11.3,0000.0,0000.96,0000.62,0000.49
2022-04-24 02:38:00,,0820.0,5.01,0.00,23.0,22.0,00.0,32.0,24.7,11.3,0000.0,0000.97,0000.63,0000.49
2022-04-24 02:39:00,,0819.9,5.01,0.00,22.9,22.0,00.0,32.0,24.7,11.3,0000.0,0000.95,0000.64,0000.50
2022-04-24 02:40:00,,0819.9,4.99,0.00,22.9,21.9,00.0,32.0,24.7,11.2,0000.0,0000.87,0000.61,0000.49
2022-04-24 02:41:00,,0820.0,4.99,0.00,22.9,21.9,00.0,32.0,24.7,11.2,0000.0,0000.82,0000.60,0000.49
2022-04-24 02:42:00,,0820.0,5.01,0.00,22.9,21.9,00.0,32.0,24.7,11.2,0000.0,0001.03,0000.60,0000.49
2022-04-24 02:43:00,,0820.1,4.99,0.00,22.9,21.9,00.0,31.9,24.7,11.2,0000.0,0001.13,0000.61,0000.49
2022-04-24 02:44:00,,0820.1,5.00,0.00,22.9,21.9,00.0,31.9,24.6,11.3,0000.0,0001.21,0000.61,0000.49
2022-04-24 02:45:00,,0819.9,5.00,0.00,22.9,21.9,00.0,31.9,24.6,11.2,0000.0,0001.18,0000.60,0000.49
2022-04-24 02:46:00,,0819.9,4.99,0.00,22.9,21.9,00.0,31.9,24.6,11.0,0000.0,0001.25,0000.59,0000.48
2022-04-24 02:47:00,,0820.0,5.01,0.00,22.9,21.9,00.0,31.9,24.6,11.1,0000.0,0001.29,0000.60,0000.48
2022-04-24 02:48:00,,0820.0,5.00,0.00,22.9,21.9,00.0,31.9,24.6,11.1,0000.0,0001.30,0000.59,0000.47
2022-04-24 02:49:00,,0820.0,4.99,0.00,22.9,21.9,00.0,31.9,24.7,11.1,0000.0,0001.34,0000.60,0000.47
2022-04-24 02:50:00,,0819.9,5.01,0.00,22.9,21.9,00.0,31.9,24.7,11.0,0000.0,0001.37,0000.61,0000.47
2022-04-24 02:51:00,,0820.0,5.00,0.00,22.9,21.8,00.0,31.9,24.6,11.0,0000.0,0001.41,0000.63,0000.47
2022-04-24 02:52:00,,0819.9,4.99,0.00,22.8,21.8,00.0,31.9,24.6,11.1,0000.0,0001.61,0000.67,0000.47
2022-04-24 02:53:00,,0819.9,5.01,0.00,22.8,21.8,00.0,31.9,24.6,11.1,0000.0,0001.39,0000.66,0000.46
2022-04-24 02:54:00,,0819.9,5.02,0.00,22.8,21.8,00.0,31.8,24.6,11.2,0000.0,0001.36,0000.67,0000.46
2022-04-24 02:55:00,,0819.9,5.00,0.00,22.8,21.8,00.0,31.8,24.6,11.1,0000.0,0001.35,0000.68,0000.46
2022-04-24 02:56:00,,0819.9,5.00,0.00,22.8,21.8,00.0,31.8,24.6,11.1,0000.0,0001.40,0000.70,0000.45
2022-04-24 02:57:00,,0819.9,5.00,0.00,22.8,21.8,00.0,31.8,24.6,11.1,0000.0,0001.40,0000.70,0000.45
2022-04-24 02:58:00,,0819.9,5.00,0.00,22.8,21.8,00.0,31.8,24.6,11.1,0000.0,0002.77,0000.70,0000.44
2022-04-24 02:59:00,,0819.9,5.00,0.00,22.8,21.8,00.0,31.8,24.6,11.1,0000.0,0002.80,0000.70,0000.44
